1489629600.29,12339,9.25,73366.8,-12.75,-13.61,-13.61,0,*6B
1489629601.58,12340,9.25,73354.3,-12.75,-13.61,-13.61,0,*65
1489629602.87,12341,9.25,73346.5,-12.75,-13.61,-13.61,0,*64
1489629604.16,12342,9.25,73342.8,-12.75,-13.61,-13.61,0,*67
1489629605.46,12343,9.25,73342.5,-12.75,-13.61,-13.61,0,*66
1489629606.66,12344,9.25,73342.3,-12.77,-13.65,-13.65,0,*63
1489629607.93,12345,9.25,73338.5,-12.77,-13.61,-13.61,0,*62
1489629609.14,12346,9.25,73340.8,-12.77,-13.65,-13.65,0,*61
1489629610.43,12347,9.25,73338.8,-12.75,-13.61,-13.61,0,*62
1489629611.64,12348,9.25,73340.3,-12.77,-13.65,-13.65,0,*6F
1489629612.93,12349,9.25,73336.5,-12.75,-13.61,-13.61,0,*6C
1489629614.16,12350,9.25,73336.0,-12.77,-13.61,-13.65,0,*62
1489629615.45,12351,9.25,73342.8,-12.75,-13.61,-13.61,0,*65
1489629616.71,12352,9.25,73348.0,-12.75,-13.61,-13.65,0,*62
1489629617.94,12353,9.25,73350.3,-12.77,-13.69,-13.79,0,*64
1489629619.18,12354,9.25,73350.5,-12.77,-13.69,-13.79,0,*63
1489629620.4,12355,9.25,73354.3,-12.77,-13.69,-13.79,0,*62
1489629621.64,12356,9.25,73354.8,-12.77,-13.79,-13.69,0,*61
1489629622.84,12357,9.25,73356.0,-12.77,-13.69,-13.69,0,*61
1489629624.05,12358,9.25,73362.8,-12.77,-13.69,-13.69,0,*6E
1489629625.26,12359,9.25,73362.0,-12.77,-13.65,-13.65,0,*6F
1489629626.47,12360,9.25,73356.3,-12.77,-13.69,-13.69,0,*65
1489629627.67,12361,9.25,73358.8,-12.77,-13.65,-13.69,0,*68
1489629628.88,12362,9.25,73360.0,-12.77,-13.65,-13.69,0,*6B
1489629630.08,12363,9.25,73360.0,-12.77,-13.65,-13.65,0,*66
1489629631.29,12364,9.25,73358.0,-12.77,-13.65,-13.65,0,*61
1489629632.53,12365,9.25,73358.3,-12.77,-13.65,-13.61,0,*64
1489629633.74,12366,9.25,73354.8,-12.77,-13.65,-13.65,0,*63
1489629634.95,12367,9.25,73358.0,-12.77,-13.65,-13.65,0,*62
1489629636.18,12368,9.25,73358.3,-12.79,-13.65,-13.65,0,*63
1489629637.39,12369,9.25,73356.5,-12.81,-13.65,-13.65,0,*65
1489629638.63,12370,9.25,73356.0,-12.79,-13.65,-13.65,0,*6A
1489629639.87,12371,9.25,73358.0,-12.79,-13.65,-13.69,0,*67
1489629641.1,12372,9.25,73360.5,-12.79,-13.65,-13.69,0,*64
1489629642.34,12373,9.25,73360.0,-12.79,-13.69,-13.65,0,*65
1489629643.58,12374,9.25,73358.8,-12.77,-13.65,-13.61,0,*64
1489629644.79,12375,9.25,73362.3,-12.77,-13.65,-13.65,0,*61
1489629645.99,12376,9.25,73356.3,-12.77,-13.65,-13.65,0,*62
1489629647.2,12377,9.25,73356.5,-12.77,-13.65,-13.65,0,*63
1489629648.41,12378,9.25,73362.0,-12.77,-13.65,-13.65,0,*6C
1489629649.62,12379,9.25,73358.3,-12.77,-13.65,-13.65,0,*6D
1489629650.83,12380,9.25,73358.5,-12.77,-13.65,-13.65,0,*6B
1489629652.04,12381,9.25,73356.5,-12.77,-13.65,-13.65,0,*6A
1489629653.24,12382,9.25,73358.5,-12.77,-13.65,-13.65,0,*69
1489629654.45,12383,9.25,73352.0,-12.77,-13.65,-13.65,0,*68
1489629655.66,12384,9.25,73358.5,-12.77,-13.65,-13.65,0,*6F
1489629656.9,12385,9.25,73348.8,-12.79,-13.65,-13.65,0,*60
1489629658.16,12386,9.25,73352.0,-12.79,-13.65,-13.79,0,*6E
1489629659.36,12387,9.25,73360.8,-12.77,-13.65,-13.69,0,*60
1489629660.6,12388,9.25,73364.0,-12.79,-13.69,-13.69,0,*6D
1489629661.83,12389,9.25,73360.0,-12.79,-13.69,-13.69,0,*6C
1489629663.07,12390,9.25,73354.8,-12.79,-13.69,-13.69,0,*64
1489629664.28,12391,9.25,73324.8,-12.81,-13.69,-13.69,0,*62
1489629665.52,12392,9.25,73314.0,-12.79,-13.69,-13.65,0,*6A
1489629666.76,12393,9.25,73328.8,-12.79,-13.65,-13.69,0,*6B
1489629667.99,12394,9.25,73334.5,-12.79,-13.65,-13.65,0,*60
1489629669.26,12395,9.25,73344.5,-12.79,-13.65,-13.61,0,*65
1489629670.47,12396,9.25,73350.3,-12.81,-13.65,-13.65,0,*65
1489629671.71,12397,9.25,73356.5,-12.79,-13.65,-13.65,0,*63
1489629672.97,12398,9.25,73356.8,-12.79,-13.65,-13.61,0,*68
1489629674.21,12399,9.25,73354.0,-12.81,-13.61,-13.65,0,*6E
1489629675.45,12400,9.25,73354.5,-12.79,-13.65,-13.65,0,*6A
1489629676.66,12401,9.25,73350.8,-12.81,-13.65,-13.65,0,*6C
1489629677.9,12402,9.25,73352.3,-12.81,-13.61,-13.65,0,*6B
1489629679.14,12403,9.25,73352.3,-12.79,-13.65,-13.65,0,*69
1489629680.35,12404,9.25,73358.3,-12.81,-13.65,-13.65,0,*69
1489629681.58,12405,9.25,73356.3,-12.79,-13.65,-13.65,0,*6F
1489629682.82,12406,9.25,73358.8,-12.79,-13.65,-13.65,0,*6C
1489629684.06,12407,9.25,73352.5,-12.79,-13.65,-13.65,0,*6D
1489629685.33,12408,9.25,73354.3,-12.79,-13.65,-13.61,0,*66
1489629686.57,12409,9.25,73358.5,-12.81,-13.61,-13.65,0,*60
1489629687.78,12410,9.25,73356.5,-12.81,-13.65,-13.65,0,*6C
1489629689.01,12411,9.25,73360.0,-12.81,-13.61,-13.65,0,*69
1489629690.22,12412,9.25,73360.3,-12.81,-13.65,-13.65,0,*6E
1489629691.46,12413,9.25,73362.0,-12.81,-13.61,-13.65,0,*6B
1489629692.67,12414,9.25,73364.0,-12.81,-13.65,-13.65,0,*68
1489629693.88,12415,9.25,73362.0,-12.81,-13.65,-13.65,0,*69
1489629695.09,12416,9.25,73372.5,-12.81,-13.65,-13.65,0,*6A
1489629696.31,12417,9.25,73374.3,-12.81,-13.69,-13.65,0,*67
1489629697.52,12418,9.25,73372.0,-12.81,-13.69,-13.65,0,*68
1489629698.73,12419,9.25,73358.3,-12.81,-13.69,-13.65,0,*69
1489629699.95,12420,9.25,73346.3,-12.81,-13.69,-13.65,0,*63
1489629701.19,12421,9.25,73332.5,-12.81,-13.69,-13.61,0,*66
1489629702.43,12422,9.25,73350.5,-12.79,-13.69,-13.65,0,*66
1489629703.67,12423,9.25,73350.3,-12.79,-13.69,-13.65,0,*67
1489629704.88,12424,9.25,73352.3,-12.81,-13.69,-13.65,0,*67
1489629706.09,12425,9.25,73350.5,-12.81,-13.69,-13.65,0,*66
1489629707.31,12426,9.25,73352.0,-12.81,-13.69,-13.65,0,*65
1489629708.52,12427,9.25,73356.3,-12.81,-13.69,-13.65,0,*64
1489629709.73,12428,9.25,73358.5,-12.81,-13.69,-13.65,0,*6B
1489629710.97,12429,9.25,73348.3,-12.79,-13.65,-13.65,0,*61
1489629712.18,12430,9.25,73352.5,-12.81,-13.65,-13.65,0,*6E
1489629713.42,12431,9.25,73352.3,-12.79,-13.65,-13.65,0,*68
1489629714.63,12432,9.25,73348.3,-12.81,-13.65,-13.65,0,*6C
1489629715.84,12433,9.25,73338.5,-12.81,-13.65,-13.65,0,*6D
1489629717.05,12434,9.25,73344.8,-12.85,-13.69,-13.69,0,*6E
1489629718.29,12435,9.25,73344.0,-12.87,-13.69,-13.73,0,*66
1489629719.5,12436,9.25,73338.0,-12.85,-13.69,-13.73,0,*67
1489629720.71,12437,9.25,73348.8,-12.85,-13.73,-13.69,0,*66
1489629721.92,12438,9.25,73358.0,-12.85,-13.69,-13.69,0,*62
1489629723.13,12439,9.25,73354.3,-12.81,-13.65,-13.65,0,*67
1489629724.34,12440,9.25,73336.5,-12.81,-13.65,-13.65,0,*69
1489629725.55,12441,9.25,73334.3,-12.81,-13.65,-13.65,0,*68
1489629726.76,12442,9.25,73350.8,-12.81,-13.65,-13.65,0,*6B
1489629727.97,12443,9.25,73344.0,-12.81,-13.65,-13.65,0,*6A
1489629729.19,12444,9.25,73336.5,-12.81,-13.65,-13.65,0,*6D
1489629730.4,12445,9.25,73338.5,-12.81,-13.65,-13.65,0,*6C
1489629731.61,12446,9.25,73340.5,-12.81,-13.65,-13.65,0,*6F
1489629732.87,12447,9.25,73336.0,-12.81,-13.61,-13.61,0,*6E
1489629734.08,12448,9.25,73356.5,-12.81,-13.65,-13.65,0,*61
1489629735.29,12449,9.25,73352.5,-12.81,-13.65,-13.65,0,*60
1489629736.51,12450,9.25,73352.0,-12.85,-13.69,-13.65,0,*60
1489629737.72,12451,9.25,73358.5,-12.81,-13.65,-13.65,0,*69
1489629738.93,12452,9.25,73360.8,-12.85,-13.69,-13.69,0,*6E
1489629740.14,12453,9.25,73368.0,-12.85,-13.69,-13.69,0,*6F
1489629741.35,12454,9.25,73362.3,-12.85,-13.69,-13.69,0,*68
1489629742.56,12455,9.25,73330.0,-12.85,-13.69,-13.69,0,*69
1489629743.77,12456,9.25,73310.5,-12.81,-13.65,-13.65,0,*6E
1489629744.98,12457,9.25,73258.3,-12.85,-13.65,-13.69,0,*67
1489629746.19,12458,9.25,73282.3,-12.85,-13.69,-13.65,0,*68
1489629747.4,12459,9.25,73288.5,-12.85,-13.65,-13.65,0,*65
1489629748.61,12460,9.25,73330.0,-12.85,-13.65,-13.65,0,*6F
1489629749.83,12461,9.25,73344.3,-12.85,-13.69,-13.65,0,*62
1489629751.04,12462,9.25,73340.8,-12.85,-13.65,-13.65,0,*6D
1489629752.28,12463,9.25,73356.0,-12.87,-13.69,-13.69,0,*6E
1489629753.48,12464,9.25,73354.5,-12.85,-13.65,-13.69,0,*67
1489629754.69,12465,9.25,73352.8,-12.85,-13.69,-13.69,0,*6A
1489629755.9,12466,9.25,73354.0,-12.85,-13.69,-13.69,0,*69
1489629757.11,12467,9.25,73346.3,-12.85,-13.69,-13.69,0,*68
1489629758.32,12468,9.25,73348.3,-12.85,-13.65,-13.69,0,*6B
1489629759.53,12469,9.25,73364.3,-12.85,-13.69,-13.69,0,*66
1489629760.74,12470,9.25,73362.8,-12.85,-13.65,-13.65,0,*6E
1489629761.96,12471,9.25,73362.0,-12.85,-13.65,-13.65,0,*6F
1489629763.16,12472,9.25,73358.5,-12.85,-13.65,-13.69,0,*60
1489629764.38,12473,9.25,73360.8,-12.85,-13.69,-13.65,0,*61
1489629765.59,12474,9.25,73366.0,-12.85,-13.69,-13.65,0,*66
1489629766.8,12475,9.25,73356.0,-12.85,-13.65,-13.69,0,*67
1489629768.01,12476,9.25,73348.3,-12.85,-13.65,-13.69,0,*64
1489629769.25,12477,9.25,73356.3,-12.87,-13.73,-13.73,0,*6B
1489629770.46,12478,9.25,73352.8,-12.85,-13.65,-13.65,0,*66
1489629771.7,12479,9.25,73356.5,-12.87,-13.69,-13.73,0,*6E
1489629772.91,12480,9.25,73360.8,-12.85,-13.65,-13.69,0,*6D
1489629774.12,12481,9.25,73338.0,-12.85,-13.69,-13.69,0,*60
1489629775.36,12482,9.25,73336.8,-12.87,-13.73,-13.73,0,*61
1489629776.59,12483,9.25,73338.5,-12.87,-13.73,-13.69,0,*6B
1489629777.84,12484,9.25,73336.8,-12.87,-13.73,-13.73,0,*67
1489629779.05,12485,9.25,73346.8,-12.85,-13.69,-13.65,0,*68
1489629780.29,12486,9.25,73350.3,-12.87,-13.73,-13.69,0,*6E
1489629781.5,12487,9.25,73354.0,-12.85,-13.69,-13.65,0,*6A
1489629782.71,12488,9.25,73338.3,-12.85,-13.65,-13.69,0,*65
1489629783.92,12489,9.25,73348.3,-12.85,-13.69,-13.69,0,*68
1489629785.13,12490,9.25,73340.5,-12.85,-13.65,-13.69,0,*6C
1489629786.34,12491,9.25,73344.5,-12.85,-13.73,-13.73,0,*61
1489629787.55,12492,9.25,73338.3,-12.85,-13.69,-13.73,0,*69
1489629788.77,12493,9.25,73330.0,-12.85,-13.69,-13.65,0,*6F
1489629789.98,12494,9.25,73328.5,-12.85,-13.73,-13.73,0,*64
1489629791.22,12495,9.25,73330.5,-12.87,-13.73,-13.73,0,*67
1489629792.43,12496,9.25,73330.0,-12.85,-13.73,-13.73,0,*66
1489629793.65,12497,9.25,73330.3,-12.85,-13.73,-13.73,0,*67
1489629794.88,12498,9.25,73338.3,-12.87,-13.73,-13.69,0,*61
1489629796.1,12499,9.25,73332.8,-12.85,-13.73,-13.73,0,*69
1489629797.34,12500,9.25,73338.3,-12.87,-13.73,-13.73,0,*6A
1489629798.55,12501,9.25,73354.8,-12.85,-13.69,-13.69,0,*69
1489629799.79,12502,9.25,73344.0,-12.87,-13.73,-13.73,0,*68
1489629801.0,12503,9.25,73332.3,-12.85,-13.69,-13.69,0,*6B
1489629802.21,12504,9.25,73334.0,-12.85,-13.69,-13.69,0,*6C
1489629803.45,12505,9.25,73328.5,-12.87,-13.73,-13.73,0,*6F
1489629804.69,12506,9.25,73332.8,-12.87,-13.73,-13.73,0,*6C
1489629805.9,12507,9.25,73346.8,-12.85,-13.69,-13.69,0,*6F
1489629807.14,12508,9.25,73338.8,-12.87,-13.73,-13.69,0,*69
1489629808.35,12509,9.25,73314.0,-12.85,-13.69,-13.69,0,*61
1489629809.56,12510,9.25,73362.5,-12.85,-13.69,-13.69,0,*69
1489629810.77,12511,9.25,73370.3,-12.85,-13.69,-13.69,0,*68
1489629811.98,12512,9.25,73364.0,-12.85,-13.69,-13.65,0,*67
1489629813.22,12513,9.25,73360.5,-12.87,-13.73,-13.73,0,*68
1489629814.46,12514,9.25,73364.8,-12.87,-13.69,-13.69,0,*6F
1489629815.7,12515,9.25,73368.0,-12.87,-13.73,-13.73,0,*6E
1489629816.94,12516,9.25,73368.0,-12.87,-13.73,-13.73,0,*6D
1489629818.17,12517,9.25,73340.3,-12.87,-13.73,-13.69,0,*67
1489629819.42,12518,9.25,73352.0,-12.87,-13.73,-13.73,0,*63
1489629820.65,12519,9.25,73368.0,-12.87,-13.73,-13.73,0,*62
1489629821.89,12520,9.25,73360.5,-12.87,-13.73,-13.73,0,*68
1489629823.11,12521,9.25,73354.0,-12.85,-13.65,-13.65,0,*6B
1489629824.32,12522,9.25,73358.8,-12.85,-13.69,-13.69,0,*68
1489629825.56,12523,9.25,73358.0,-12.87,-13.69,-13.73,0,*60
1489629826.8,12524,9.25,73358.0,-12.87,-13.69,-13.73,0,*67
1489629828.04,12525,9.25,73354.5,-12.87,-13.69,-13.73,0,*66
1489629829.27,12526,9.25,73356.8,-12.87,-13.69,-13.69,0,*6E
1489629830.48,12527,9.25,73358.3,-12.85,-13.65,-13.69,0,*61
1489629831.72,12528,9.25,73348.0,-12.87,-13.73,-13.73,0,*60
1489629832.96,12529,9.25,73334.5,-12.87,-13.73,-13.73,0,*61
1489629834.2,12530,9.25,73324.5,-12.87,-13.69,-13.73,0,*62
1489629835.41,12531,9.25,73320.8,-12.85,-13.65,-13.73,0,*6D
1489629836.65,12532,9.25,73338.3,-12.87,-13.73,-13.73,0,*6B
1489629837.89,12533,9.25,73346.0,-12.87,-13.73,-13.73,0,*6A
1489629839.13,12534,9.25,73344.8,-12.87,-13.73,-13.73,0,*6D
1489629840.37,12535,9.25,73348.5,-12.87,-13.73,-13.73,0,*6C
1489629841.58,12536,9.25,73348.8,-12.85,-13.69,-13.69,0,*6D
1489629842.82,12537,9.25,73352.5,-12.87,-13.73,-13.73,0,*6E
1489629844.04,12538,9.25,73356.0,-12.89,-13.73,-13.73,0,*6F
1489629845.25,12539,9.25,73348.0,-12.89,-13.73,-13.69,0,*65
1489629846.49,12540,9.25,73356.0,-12.87,-13.73,-13.73,0,*6E
1489629847.73,12541,9.25,73358.0,-12.87,-13.73,-13.73,0,*6F
1489629848.94,12542,9.19,73334.5,-12.85,-13.69,-13.69,0,*6E
1489629850.18,12543,9.25,73344.0,-12.87,-13.73,-13.73,0,*6D
1489629851.41,12544,9.25,73360.0,-12.87,-13.73,-13.69,0,*61
1489629852.65,12545,9.25,73364.0,-12.87,-13.73,-13.73,0,*6B
1489629853.89,12546,9.25,73370.5,-12.87,-13.73,-13.73,0,*68
1489629855.13,12547,9.25,73366.3,-12.87,-13.69,-13.73,0,*62
1489629856.37,12548,9.25,73360.8,-12.87,-13.73,-13.73,0,*66
1489629857.61,12549,9.25,73366.3,-12.87,-13.73,-13.73,0,*67
1489629858.85,12550,9.25,73370.8,-12.87,-13.73,-13.73,0,*6F
1489629860.1,12551,9.25,73380.8,-12.87,-13.69,-13.73,0,*65
1489629861.33,12552,9.25,73366.8,-12.87,-13.73,-13.69,0,*66
1489629862.54,12553,9.25,73360.8,-12.89,-13.73,-13.73,0,*62
1489629863.76,12554,9.25,73364.8,-12.89,-13.73,-13.73,0,*65
1489629864.97,12555,9.25,73354.8,-12.89,-13.73,-13.73,0,*64
1489629866.18,12556,9.25,73332.8,-12.89,-13.73,-13.73,0,*67
1489629867.42,12557,9.25,73334.5,-12.87,-13.73,-13.73,0,*68
1489629868.66,12558,9.25,73352.8,-12.87,-13.73,-13.73,0,*67
1489629869.9,12559,9.25,73352.8,-12.87,-13.73,-13.73,0,*66
1489629871.12,12560,9.25,73356.8,-12.89,-13.69,-13.73,0,*69
1489629872.33,12561,9.25,73348.5,-12.89,-13.73,-13.73,0,*63
1489629873.54,12562,9.25,73354.5,-12.89,-13.73,-13.73,0,*60
1489629874.75,12563,9.25,73358.8,-12.89,-13.73,-13.73,0,*61
1489629875.97,12564,9.25,73358.3,-12.89,-13.73,-13.73,0,*66
1489629877.18,12565,9.25,73366.3,-12.89,-13.73,-13.73,0,*67
1489629878.39,12566,9.25,73366.5,-12.89,-13.73,-13.73,0,*64
1489629879.6,12567,9.25,73360.3,-12.89,-13.73,-13.73,0,*65
1489629880.82,12568,9.25,73356.3,-12.89,-13.73,-13.73,0,*6A
1489629882.03,12569,9.25,73364.0,-12.89,-13.73,-13.73,0,*6B
1489629883.24,12570,9.25,73366.3,-12.89,-13.73,-13.73,0,*63
1489629884.46,12571,9.25,73362.3,-12.89,-13.73,-13.73,0,*62
1489629885.67,12572,9.25,73360.8,-12.89,-13.73,-13.73,0,*61
1489629886.88,12573,9.25,73364.8,-12.89,-13.73,-13.73,0,*60
1489629888.09,12574,9.25,73362.8,-12.89,-13.69,-13.73,0,*6C
1489629889.31,12575,9.25,73366.3,-12.89,-13.73,-13.73,0,*66
1489629890.59,12576,9.25,73366.3,-12.91,-13.79,-13.79,0,*6C
1489629891.8,12577,9.25,73364.8,-12.89,-13.73,-13.73,0,*64
1489629893.01,12578,9.25,73368.5,-12.89,-13.73,-13.73,0,*6B
1489629894.28,12579,9.25,73366.5,-12.91,-13.79,-13.73,0,*69
1489629895.49,12580,9.25,73370.0,-12.89,-13.73,-13.73,0,*6C
1489629896.7,12581,9.25,73372.5,-12.89,-13.73,-13.73,0,*6D
1489629897.92,12582,9.25,73368.5,-12.89,-13.73,-13.73,0,*6E
1489629899.13,12583,9.25,73350.0,-12.89,-13.73,-13.73,0,*6F
1489629900.34,12584,9.25,73348.3,-12.89,-13.73,-13.69,0,*63
1489629901.55,12585,9.25,73358.5,-12.89,-13.73,-13.69,0,*62
1489629902.83,12586,9.25,73350.3,-12.91,-13.79,-13.79,0,*63
1489629904.04,12587,9.25,73364.0,-12.89,-13.73,-13.69,0,*60
1489629905.25,12588,9.25,73374.3,-12.89,-13.73,-13.73,0,*64
1489629906.47,12589,9.25,73368.0,-12.89,-13.69,-13.73,0,*6E
1489629907.68,12590,9.25,73362.3,-12.89,-13.69,-13.69,0,*6D
1489629908.89,12591,9.25,73346.8,-12.89,-13.73,-13.73,0,*6C
1489629910.1,12592,9.25,73350.0,-12.89,-13.73,-13.73,0,*6F
1489629911.32,12593,9.25,73362.8,-12.89,-13.69,-13.73,0,*65
1489629912.53,12594,9.25,73360.8,-12.89,-13.69,-13.73,0,*62
1489629913.74,12595,9.25,73354.8,-12.89,-13.69,-13.73,0,*63
1489629914.95,12596,9.25,73360.3,-12.89,-13.69,-13.69,0,*6B
1489629916.16,12597,9.25,73366.5,-12.89,-13.73,-13.73,0,*6A
1489629917.37,12598,9.25,73366.3,-12.89,-13.73,-13.69,0,*6E
1489629918.66,12599,9.25,73370.3,-12.91,-13.79,-13.79,0,*6D
1489629919.94,12600,9.25,73370.3,-12.91,-13.79,-13.79,0,*6E
1489629921.15,12601,9.25,73368.0,-12.89,-13.69,-13.73,0,*6D
1489629922.36,12602,9.25,73362.8,-12.89,-13.73,-13.73,0,*65
1489629923.58,12603,9.25,73364.3,-12.89,-13.73,-13.73,0,*64
1489629924.86,12604,9.25,73360.0,-12.91,-13.79,-13.79,0,*6A
1489629926.1,12605,9.25,73362.3,-12.89,-13.79,-13.73,0,*68
1489629927.31,12606,9.25,73364.5,-12.89,-13.73,-13.73,0,*61
1489629928.59,12607,9.25,73364.0,-12.91,-13.79,-13.79,0,*69
1489629929.81,12608,9.25,73370.0,-12.89,-13.73,-13.73,0,*6F
1489629931.09,12609,9.19,73364.3,-12.91,-13.79,-13.79,0,*67
1489629932.33,12610,9.25,73366.3,-12.89,-13.79,-13.73,0,*6C
1489629933.56,12611,9.19,73366.5,-12.89,-13.79,-13.69,0,*66
1489629934.77,12612,9.25,73366.8,-12.89,-13.69,-13.73,0,*6F
1489629935.98,12613,9.19,73362.0,-12.89,-13.73,-13.73,0,*65
1489629937.22,12614,9.19,73364.3,-12.89,-13.79,-13.73,0,*68
1489629938.43,12615,9.25,73368.0,-12.89,-13.73,-13.73,0,*63
1489629939.72,12616,9.25,73368.8,-12.91,-13.79,-13.79,0,*69
1489629941.0,12617,9.19,73364.5,-12.91,-13.79,-13.83,0,*6D
1489629942.29,12618,9.25,73366.0,-12.91,-13.79,-13.79,0,*67
1489629943.57,12619,9.25,73360.0,-12.91,-13.79,-13.79,0,*66
1489629944.78,12620,9.25,73356.8,-12.89,-13.73,-13.73,0,*65
1489629946.05,12621,9.25,73356.3,-12.91,-13.73,-13.83,0,*62
1489629947.33,12622,9.25,73344.0,-12.91,-13.79,-13.79,0,*6E
1489629948.61,12623,9.25,73338.3,-12.91,-13.79,-13.79,0,*6F
1489629949.9,12624,9.25,73342.5,-12.91,-13.79,-13.79,0,*68
1489629951.11,12625,9.19,73346.5,-12.89,-13.73,-13.69,0,*6B
1489629952.39,12626,9.25,73348.5,-12.91,-13.79,-13.79,0,*6A
1489629953.6,12627,9.25,73350.8,-12.89,-13.73,-13.73,0,*62
1489629954.82,12628,9.25,73354.8,-12.89,-13.73,-13.73,0,*6D
1489629956.1,12629,9.25,73348.5,-12.91,-13.79,-13.79,0,*65
1489629957.38,12630,9.19,73348.8,-12.91,-13.79,-13.79,0,*6D
1489629958.67,12631,9.25,73350.5,-12.91,-13.79,-13.83,0,*69
1489629959.96,12632,9.25,73348.5,-12.91,-13.83,-13.83,0,*6F
1489629961.25,12633,9.25,73354.5,-12.91,-13.79,-13.83,0,*6B
1489629962.54,12634,9.25,73354.3,-12.91,-13.79,-13.83,0,*6C
1489629963.8,12635,9.25,73358.0,-12.91,-13.79,-13.73,0,*62
1489629965.09,12636,9.19,73356.5,-12.91,-13.79,-13.79,0,*6B
1489629966.38,12637,9.25,73360.8,-12.91,-13.83,-13.79,0,*6F
1489629967.66,12638,9.25,73366.0,-12.91,-13.79,-13.79,0,*65
1489629968.94,12639,9.19,73372.5,-12.91,-13.79,-13.79,0,*64
1489629970.23,12640,9.25,73374.8,-12.91,-13.79,-13.79,0,*6A
1489629971.51,12641,9.25,73374.8,-12.91,-13.79,-13.79,0,*6B
1489629972.79,12642,9.25,73374.3,-12.91,-13.79,-13.79,0,*68
1489629974.08,12643,9.19,73374.0,-12.91,-13.79,-13.83,0,*6C
1489629975.37,12644,9.19,73366.5,-12.91,-13.79,-13.83,0,*6B
1489629976.66,12645,9.19,73360.5,-12.95,-13.87,-13.87,0,*6B
1489629977.96,12646,9.25,73370.5,-12.91,-13.83,-13.83,0,*6C
1489629979.25,12647,9.19,73336.0,-12.91,-13.83,-13.79,0,*68
1489629980.54,12648,9.25,73330.5,-12.91,-13.83,-13.83,0,*62
1489629981.84,12649,9.25,73332.5,-12.91,-13.83,-13.83,0,*63
1489629983.13,12650,9.25,73344.5,-12.95,-13.87,-13.83,0,*6B
1489629984.42,12651,9.25,73340.3,-12.91,-13.83,-13.79,0,*6F
1489629985.69,12652,9.25,73364.5,-12.91,-13.79,-13.73,0,*63
1489629986.95,12653,9.25,73374.3,-12.91,-13.79,-13.73,0,*62
1489629988.23,12654,9.19,73348.3,-12.91,-13.79,-13.79,0,*6F
1489629989.5,12655,9.19,73348.3,-12.91,-13.79,-13.73,0,*64
1489629990.78,12656,9.25,73356.5,-12.91,-13.79,-13.79,0,*6D
1489629992.04,12657,9.25,73362.8,-12.91,-13.73,-13.79,0,*66
1489629993.34,12658,9.25,73368.3,-12.95,-13.83,-13.83,0,*67
1489629994.62,12659,9.25,73368.8,-12.91,-13.79,-13.79,0,*62
1489629995.91,12660,9.25,73348.3,-12.91,-13.79,-13.83,0,*6D
1489629997.17,12661,9.19,73354.0,-12.91,-13.73,-13.79,0,*63
1489629998.41,12662,9.19,73362.3,-12.91,-13.73,-13.73,0,*6A
1489629999.69,12663,9.25,73364.5,-12.91,-13.79,-13.79,0,*6B
1489630000.95,12664,9.25,73356.0,-12.91,-13.73,-13.79,0,*66
1489630002.19,12665,9.19,73358.5,-12.91,-13.73,-13.73,0,*6D
1489630003.46,12666,9.19,73368.3,-12.91,-13.79,-13.73,0,*64
1489630004.72,12667,9.19,73372.3,-12.91,-13.79,-13.73,0,*65
1489630005.98,12668,9.19,73354.0,-12.91,-13.79,-13.73,0,*6A
1489630007.27,12669,9.25,73358.3,-12.91,-13.79,-13.79,0,*61
1489630008.55,12670,9.19,73370.0,-12.91,-13.79,-13.79,0,*69
1489630009.81,12671,9.25,73340.8,-12.91,-13.73,-13.79,0,*62
1489630011.05,12672,9.25,73338.8,-12.91,-13.73,-13.73,0,*6B
1489630012.35,12673,9.19,73328.0,-12.95,-13.83,-13.79,0,*6B
1489630013.64,12674,9.25,73360.3,-12.95,-13.79,-13.83,0,*6C
1489630014.92,12675,9.25,73352.0,-12.91,-13.79,-13.79,0,*6C
1489630016.16,12676,9.25,73372.3,-12.91,-13.73,-13.73,0,*6F
1489630017.46,12677,9.25,73362.3,-12.95,-13.83,-13.83,0,*6A
1489630018.75,12678,9.19,73366.8,-12.91,-13.79,-13.79,0,*61
1489630020.05,12679,9.19,73368.5,-12.95,-13.83,-13.83,0,*64
1489630021.35,12680,9.25,73370.0,-12.95,-13.83,-13.83,0,*62
1489630022.63,12681,9.19,73370.5,-12.91,-13.79,-13.79,0,*67
1489630023.93,12682,9.25,73374.3,-12.95,-13.79,-13.83,0,*65
1489630025.23,12683,9.19,73374.8,-12.95,-13.83,-13.83,0,*61
1489630026.52,12684,9.25,73372.8,-12.95,-13.79,-13.83,0,*63
1489630027.81,12685,9.19,73370.0,-12.91,-13.79,-13.79,0,*63
1489630029.11,12686,9.19,73366.5,-12.95,-13.83,-13.83,0,*64
1489630030.4,12687,9.25,73368.3,-12.95,-13.79,-13.83,0,*60
1489630031.69,12688,9.19,73368.8,-12.91,-13.79,-13.79,0,*6E
1489630032.99,12689,9.19,73370.5,-12.95,-13.83,-13.83,0,*6B
1489630034.29,12690,9.25,73372.5,-12.95,-13.83,-13.83,0,*63
1489630035.59,12691,9.25,73368.3,-12.95,-13.83,-13.83,0,*62
1489630036.89,12692,9.25,73370.3,-12.95,-13.83,-13.83,0,*61
1489630038.17,12693,9.25,73374.8,-12.91,-13.79,-13.79,0,*64
1489630039.48,12694,9.25,73368.5,-12.95,-13.83,-13.83,0,*67
1489630040.76,12695,9.25,73366.8,-12.91,-13.79,-13.83,0,*67
1489630042.06,12696,9.19,73364.8,-12.95,-13.83,-13.87,0,*61
1489630043.36,12697,9.25,73368.5,-12.95,-13.83,-13.87,0,*60
1489630044.67,12698,9.19,73372.3,-12.95,-13.83,-13.83,0,*6B
1489630045.95,12699,9.19,73372.5,-12.91,-13.79,-13.79,0,*6E
1489630047.21,12700,9.19,73370.8,-12.91,-13.73,-13.79,0,*65
1489630048.51,12701,9.25,73372.8,-12.95,-13.83,-13.83,0,*6A
1489630049.81,12702,9.19,73370.5,-12.95,-13.83,-13.83,0,*69
1489630051.07,12703,9.25,73378.3,-12.91,-13.73,-13.79,0,*66
1489630052.33,12704,9.19,73374.3,-12.91,-13.79,-13.73,0,*61
1489630053.64,12705,9.19,73378.0,-12.95,-13.83,-13.83,0,*6E
1489630054.94,12706,9.19,73352.5,-12.95,-13.83,-13.83,0,*6D
1489630056.24,12707,9.19,73374.5,-12.95,-13.83,-13.83,0,*6C
1489630057.54,12708,9.25,73358.3,-12.95,-13.83,-13.83,0,*63
1489630058.84,12709,9.25,73346.0,-12.95,-13.83,-13.79,0,*67
1489630060.1,12710,9.19,73324.3,-12.91,-13.79,-13.73,0,*64
1489630061.39,12711,9.25,73340.5,-12.95,-13.79,-13.79,0,*6B
1489630062.68,12712,9.19,73320.0,-12.95,-13.79,-13.83,0,*6D
1489630063.97,12713,9.19,73320.3,-12.95,-13.79,-13.79,0,*69
1489630065.28,12714,9.25,73286.5,-12.95,-13.83,-13.83,0,*6E
1489630066.51,12715,9.19,73308.0,-12.91,-13.73,-13.73,0,*6B
1489630067.81,12716,9.25,73316.8,-12.95,-13.79,-13.83,0,*69
1489630069.11,12717,9.19,73342.5,-12.95,-13.83,-13.83,0,*6D
1489630070.37,12718,9.25,73342.8,-12.91,-13.79,-13.73,0,*6C
1489630071.67,12719,9.19,73332.3,-12.95,-13.79,-13.83,0,*66
1489630072.96,12720,9.25,73348.3,-12.95,-13.83,-13.79,0,*6C
1489630074.25,12721,9.19,73336.0,-12.95,-13.79,-13.79,0,*68
1489630075.54,12722,9.19,73360.8,-12.91,-13.79,-13.79,0,*6F
1489630076.83,12723,9.19,73364.0,-12.95,-13.83,-13.79,0,*6F
1489630078.13,12724,9.19,73366.5,-12.95,-13.83,-13.79,0,*68
1489630079.42,12725,9.25,73372.3,-12.95,-13.79,-13.79,0,*6C
1489630080.71,12726,9.19,73372.8,-12.95,-13.79,-13.79,0,*6F
1489630081.97,12727,9.25,73372.5,-12.97,-13.79,-13.79,0,*6C
1489630083.22,12728,9.19,73370.8,-12.95,-13.69,-13.65,0,*6D
1489630084.46,12729,9.19,73366.0,-12.95,-13.65,-13.69,0,*6C
1489630085.7,12730,9.19,73356.0,-12.95,-13.69,-13.69,0,*68
1489630086.94,12731,9.25,73358.8,-12.95,-13.65,-13.69,0,*65
1489630088.19,12732,9.19,73352.3,-12.95,-13.65,-13.65,0,*6A
1489630089.43,12733,9.25,73358.5,-12.95,-13.65,-13.69,0,*67
1489630090.67,12734,9.25,73360.0,-12.95,-13.69,-13.69,0,*6C
1489630091.92,12735,9.25,73354.0,-12.95,-13.69,-13.65,0,*61
1489630093.16,12736,9.25,73346.5,-12.95,-13.69,-13.69,0,*6E
1489630094.43,12737,9.25,73356.5,-12.95,-13.69,-13.79,0,*6E
1489630095.72,12738,9.25,73356.0,-12.95,-13.79,-13.79,0,*60